This is the latest recevied weather packets stored in our database for station/object YB2YEN-13. If no packets are shown the sender has not sent any weather packets the latest 10 day(s).
| Time | Temp. | Humidity | Pressure | Rain* | Wind** | Luminosity | Snow |
|---|---|---|---|---|---|---|---|
| 1777956436 | 31.67° C | 74% | 978 hPa | - | - | 0 W/m² | - |
| 1777956114 | 32.22° C | 72% | 978 hPa | - | - | 0 W/m² | - |
| 1777955792 | 32.78° C | 80% | 978 hPa | - | - | 0 W/m² | - |
| 1777955470 | 33.33° C | 85% | 978 hPa | - | - | 0 W/m² | - |
| 1777955148 | 32.22° C | 85% | 978 hPa | - | - | 0 W/m² | - |
| 1777954826 | 32.22° C | 81% | 978 hPa | - | - | 0 W/m² | - |
| 1777954503 | 31.67° C | 81% | 978 hPa | - | - | 0 W/m² | - |
| 1777954182 | 32.78° C | 79% | 978 hPa | - | - | 0 W/m² | - |
| 1777953860 | 32.22° C | 87% | 978 hPa | - | - | 0 W/m² | - |
| 1777953538 | 32.22° C | 84% | 979 hPa | - | - | 0 W/m² | - |
| 1777953216 | 32.78° C | 79% | 979 hPa | - | - | 0 W/m² | - |
| 1777952894 | 32.22° C | 87% | 979 hPa | - | - | 0 W/m² | - |
| 1777952572 | 32.78° C | 88% | 979 hPa | - | - | 0 W/m² | - |
| 1777952250 | 32.78° C | 88% | 979 hPa | - | - | 0 W/m² | - |
| 1777951928 | 32.78° C | 96% | 979 hPa | - | - | 0 W/m² | - |
| 1777951606 | 33.33° C | 89% | 979 hPa | - | - | 0 W/m² | - |
| 1777951284 | 32.78° C | 92% | 979 hPa | - | - | 0 W/m² | - |
| 1777950962 | 32.78° C | 90% | 979 hPa | - | - | 0 W/m² | - |
| 1777950639 | 32.22° C | 90% | 979 hPa | - | - | 0 W/m² | - |
| 1777950318 | 32.22° C | 96% | 979 hPa | - | - | 0 W/m² | - |
| 1777949995 | 31.11° C | 96% | 979 hPa | - | - | 0 W/m² | - |
| 1777949673 | 32.22° C | 94% | 979 hPa | - | - | 0 W/m² | - |
| 1777949352 | 31.67° C | 95% | 979 hPa | - | - | 0 W/m² | - |
| 1777949030 | 31.67° C | 99% | 979 hPa | - | - | 0 W/m² | - |
| 1777948707 | 30.56° C | 99% | 979 hPa | - | - | 0 W/m² | - |
* Rain since midnight (hover to see other rain measurements)
** Current wind speed in m/s (hover to see current wind gust speed)